SAM4 KPBI-KADW

Flight info

Callsign SAM4
Flight time 2h 6m
Altitude 41000
Route SLIDZ3 LENDS GRUBR Y299 SEELO WAALT ILM RUKRR THHMP VUDOO2
Aircraft B737/M-SDE2E3FGHIRWXY/LB1

Departure

Time 2026-05-06 17:46
Airport Palm Beach International Airport (KPBI)

Arrival

Time 2026-05-06 19:53
Airport Joint Base Andrews (KADW)
Time Latitude Longitude Altitude Speed Heading
2026-05-06 17:30 26.67980 -80.08030 21 ft 0 kts 272°
2026-05-06 17:36 26.67980 -80.08045 22 ft 7 kts 272°
2026-05-06 17:36 26.67997 -80.08126 21 ft 13 kts 298°
2026-05-06 17:37 26.68079 -80.08161 21 ft 13 kts 330°
2026-05-06 17:37 26.68099 -80.08253 21 ft 13 kts 272°
2026-05-06 17:37 26.68103 -80.08350 21 ft 12 kts 273°
2026-05-06 17:37 26.68107 -80.08456 21 ft 15 kts 272°
2026-05-06 17:38 26.68113 -80.08590 21 ft 19 kts 273°
2026-05-06 17:38 26.68121 -80.08751 22 ft 21 kts 273°
2026-05-06 17:38 26.68127 -80.08914 21 ft 21 kts 271°
2026-05-06 17:38 26.68134 -80.09071 21 ft 20 kts 273°
2026-05-06 17:39 26.68141 -80.09224 21 ft 19 kts 273°
2026-05-06 17:39 26.68147 -80.09372 21 ft 19 kts 272°
2026-05-06 17:39 26.68153 -80.09515 21 ft 18 kts 273°
2026-05-06 17:39 26.68160 -80.09653 21 ft 17 kts 272°
2026-05-06 17:40 26.68165 -80.09786 21 ft 17 kts 272°
2026-05-06 17:40 26.68171 -80.09914 21 ft 16 kts 274°
2026-05-06 17:40 26.68177 -80.10038 21 ft 16 kts 272°
2026-05-06 17:40 26.68182 -80.10156 21 ft 15 kts 272°
2026-05-06 17:41 26.68186 -80.10274 21 ft 15 kts 272°
2026-05-06 17:41 26.68191 -80.10387 21 ft 14 kts 274°
2026-05-06 17:41 26.68197 -80.10496 20 ft 14 kts 273°
2026-05-06 17:41 26.68200 -80.10599 20 ft 13 kts 272°
2026-05-06 17:42 26.68205 -80.10699 20 ft 13 kts 273°
2026-05-06 17:42 26.68210 -80.10780 20 ft 0 kts 274°
2026-05-06 17:44 26.68210 -80.10781 20 ft 1 kts 274°
2026-05-06 17:45 26.68215 -80.10807 20 ft 6 kts 290°
2026-05-06 17:45 26.68253 -80.10831 20 ft 8 kts
2026-05-06 17:45 26.68315 -80.10820 20 ft 10 kts 36°
2026-05-06 17:45 26.68316 -80.10712 21 ft 36 kts 93°
2026-05-06 17:46 26.68285 -80.09999 22 ft 143 kts 92°
2026-05-06 17:46 26.68248 -80.08617 529 ft 200 kts 90°
2026-05-06 17:46 26.68222 -80.06945 1650 ft 228 kts 91°
2026-05-06 17:46 26.68262 -80.05186 2958 ft 234 kts 76°
2026-05-06 17:47 26.68945 -80.03462 3738 ft 258 kts 62°
2026-05-06 17:47 26.69817 -80.01647 4762 ft 269 kts 62°
2026-05-06 17:47 26.70705 -79.99786 5989 ft 272 kts 61°
2026-05-06 17:47 26.71599 -79.97915 7221 ft 274 kts 58°
2026-05-06 17:48 26.72716 -79.96170 8274 ft 279 kts 49°
2026-05-06 17:48 26.73989 -79.94515 9405 ft 282 kts 47°
2026-05-06 17:48 26.75304 -79.92863 10446 ft 288 kts 46°
2026-05-06 17:48 26.76696 -79.91115 10890 ft 316 kts 46°
2026-05-06 17:49 26.78205 -79.89203 11393 ft 335 kts 47°
2026-05-06 17:49 26.79748 -79.87226 12318 ft 339 kts 46°
2026-05-06 17:49 26.81292 -79.85235 13367 ft 339 kts 46°
2026-05-06 17:49 26.82843 -79.83226 14296 ft 343 kts 46°
2026-05-06 17:50 26.84413 -79.81191 15041 ft 350 kts 46°
2026-05-06 17:50 26.86021 -79.79105 15775 ft 357 kts 45°
2026-05-06 17:50 26.87656 -79.76981 16543 ft 363 kts 45°
2026-05-06 17:50 26.89313 -79.74827 17301 ft 368 kts 45°
2026-05-06 17:51 26.90997 -79.72638 18040 ft 374 kts 44°
2026-05-06 17:51 26.92718 -79.70429 18712 ft 378 kts 42°
2026-05-06 17:51 26.94593 -79.68342 19333 ft 381 kts 38°
2026-05-06 17:51 26.96558 -79.66322 19968 ft 385 kts 37°
2026-05-06 17:52 26.98555 -79.64288 20597 ft 390 kts 38°
2026-05-06 17:52 27.00565 -79.62212 21218 ft 395 kts 38°
2026-05-06 17:52 27.02587 -79.60090 21829 ft 401 kts 38°
2026-05-06 17:52 27.04626 -79.57937 22395 ft 405 kts 39°
2026-05-06 17:53 27.06692 -79.55752 22991 ft 410 kts 39°
2026-05-06 17:53 27.08782 -79.53543 23576 ft 415 kts 38°
2026-05-06 17:53 27.10894 -79.51311 24057 ft 420 kts 38°
2026-05-06 17:53 27.13026 -79.49056 24561 ft 423 kts 38°
2026-05-06 17:54 27.15174 -79.46783 25073 ft 426 kts 38°
2026-05-06 17:54 27.17334 -79.44495 25574 ft 429 kts 38°
2026-05-06 17:54 27.19518 -79.42181 26067 ft 432 kts 38°
2026-05-06 17:54 27.21706 -79.39860 26597 ft 434 kts 38°
2026-05-06 17:55 27.23908 -79.37523 27105 ft 437 kts 38°
2026-05-06 17:55 27.26128 -79.35166 27576 ft 441 kts 37°
2026-05-06 17:55 27.28362 -79.32794 28026 ft 444 kts 37°
2026-05-06 17:55 27.30584 -79.30432 28476 ft 447 kts 37°
2026-05-06 17:56 27.32852 -79.28020 28926 ft 450 kts 37°
2026-05-06 17:56 27.35130 -79.25596 29364 ft 453 kts 37°
2026-05-06 17:56 27.37428 -79.23148 29792 ft 456 kts 37°
2026-05-06 17:56 27.39742 -79.20683 30209 ft 459 kts 37°
2026-05-06 17:57 27.42069 -79.18202 30555 ft 462 kts 37°
2026-05-06 17:57 27.44406 -79.15709 30888 ft 465 kts 37°
2026-05-06 17:57 27.46763 -79.13192 31229 ft 468 kts 37°
2026-05-06 17:57 27.49129 -79.10663 31554 ft 470 kts 37°
2026-05-06 17:58 27.51506 -79.08122 31928 ft 471 kts 37°
2026-05-06 17:58 27.53877 -79.05584 32411 ft 470 kts 37°
2026-05-06 17:58 27.56226 -79.03065 33108 ft 463 kts 37°
2026-05-06 17:58 27.58548 -79.00575 33690 ft 459 kts 37°
2026-05-06 17:59 27.60865 -78.98095 34066 ft 460 kts 37°
2026-05-06 17:59 27.63191 -78.95605 34350 ft 462 kts 36°
2026-05-06 17:59 27.65534 -78.93145 34673 ft 458 kts 31°
2026-05-06 17:59 27.68198 -78.91334 35001 ft 442 kts 15°
2026-05-06 18:00 27.71101 -78.90422 35367 ft 428 kts
2026-05-06 18:00 27.74044 -78.89982 35725 ft 425 kts
2026-05-06 18:00 27.76979 -78.89603 36005 ft 425 kts
2026-05-06 18:00 27.79924 -78.89239 36295 ft 426 kts
2026-05-06 18:01 27.82864 -78.88867 36630 ft 425 kts
2026-05-06 18:01 27.85799 -78.88483 36953 ft 425 kts
2026-05-06 18:01 27.88732 -78.88087 37253 ft 425 kts
2026-05-06 18:01 27.91666 -78.87683 37548 ft 424 kts
2026-05-06 18:02 27.94594 -78.87274 37878 ft 424 kts
2026-05-06 18:02 27.97516 -78.86863 38181 ft 423 kts 360°
2026-05-06 18:02 28.00440 -78.86450 38456 ft 423 kts 360°
2026-05-06 18:02 28.03364 -78.86038 38728 ft 423 kts 360°
2026-05-06 18:03 28.06269 -78.85627 38973 ft 423 kts 360°
2026-05-06 18:03 28.09186 -78.85214 39210 ft 422 kts 360°
2026-05-06 18:03 28.12104 -78.84802 39434 ft 422 kts 359°
2026-05-06 18:03 28.15013 -78.84391 39651 ft 422 kts 359°
2026-05-06 18:04 28.17920 -78.83980 39871 ft 421 kts 359°
2026-05-06 18:04 28.20827 -78.83568 40114 ft 421 kts 359°
2026-05-06 18:04 28.23725 -78.83158 40356 ft 420 kts 359°
2026-05-06 18:04 28.26624 -78.82748 40566 ft 419 kts 359°
2026-05-06 18:05 28.29519 -78.82337 40748 ft 419 kts 359°
2026-05-06 18:05 28.32415 -78.81927 40931 ft 419 kts 359°
2026-05-06 18:05 28.35309 -78.81516 41115 ft 419 kts 359°
2026-05-06 18:05 28.38218 -78.81105 41105 ft 422 kts 359°
2026-05-06 18:06 28.43991 -78.80284 41113 ft 419 kts 359°
2026-05-06 18:06 28.49753 -78.79461 41132 ft 415 kts 358°
2026-05-06 18:07 28.55469 -78.78646 41119 ft 413 kts 358°
2026-05-06 18:07 28.61160 -78.77836 41119 ft 411 kts 358°
2026-05-06 18:08 28.66819 -78.77030 41122 ft 411 kts 358°
2026-05-06 18:08 28.72503 -78.76220 41123 ft 412 kts 358°
2026-05-06 18:09 28.78209 -78.75406 41142 ft 414 kts 358°
2026-05-06 18:09 28.83947 -78.74585 41128 ft 417 kts 358°
2026-05-06 18:10 28.89712 -78.73759 41124 ft 419 kts 358°
2026-05-06 18:10 28.95502 -78.72927 41119 ft 420 kts 358°
2026-05-06 18:11 29.00332 -78.72233 41123 ft 421 kts 358°
2026-05-06 18:11 29.07112 -78.71257 41144 ft 421 kts 358°
2026-05-06 18:12 29.12927 -78.70419 41124 ft 421 kts 358°
2026-05-06 18:12 29.18725 -78.69582 41115 ft 419 kts 358°
2026-05-06 18:13 29.24505 -78.68747 41118 ft 418 kts 358°
2026-05-06 18:13 29.30261 -78.67916 41123 ft 416 kts 358°
2026-05-06 18:14 29.35958 -78.67093 41135 ft 414 kts 358°
2026-05-06 18:14 29.41668 -78.66280 41117 ft 413 kts 357°
2026-05-06 18:15 29.47355 -78.65482 41120 ft 411 kts 357°
2026-05-06 18:15 29.52074 -78.64818 41122 ft 410 kts 357°
2026-05-06 18:16 29.57737 -78.64021 41117 ft 410 kts 357°
2026-05-06 18:16 29.63392 -78.63222 41140 ft 409 kts 357°
2026-05-06 18:17 29.69051 -78.62422 41124 ft 410 kts 357°
2026-05-06 18:17 29.74719 -78.61620 41119 ft 410 kts 357°
2026-05-06 18:18 29.80389 -78.60816 41117 ft 411 kts 357°
2026-05-06 18:18 29.86063 -78.60010 41117 ft 411 kts 357°
2026-05-06 18:19 29.91740 -78.59203 41135 ft 411 kts 357°
2026-05-06 18:19 29.97431 -78.58393 41121 ft 412 kts 357°
2026-05-06 18:20 30.03127 -78.57581 41119 ft 412 kts 357°
2026-05-06 18:20 30.08819 -78.56769 41120 ft 412 kts 357°
2026-05-06 18:21 30.14513 -78.55956 41116 ft 412 kts 357°
2026-05-06 18:21 30.20207 -78.55139 41117 ft 412 kts 357°
2026-05-06 18:22 30.25897 -78.54321 41119 ft 412 kts 357°
2026-05-06 18:22 30.31590 -78.53501 41120 ft 412 kts 357°
2026-05-06 18:23 30.37278 -78.52682 41120 ft 412 kts 357°
2026-05-06 18:23 30.42958 -78.51859 41119 ft 412 kts 357°
2026-05-06 18:24 30.48604 -78.50962 41127 ft 413 kts 358°
2026-05-06 18:24 30.54286 -78.50030 41117 ft 412 kts 358°
2026-05-06 18:25 30.59967 -78.49101 41119 ft 412 kts 358°
2026-05-06 18:25 30.65640 -78.48179 41119 ft 411 kts 358°
2026-05-06 18:26 30.71305 -78.47259 41117 ft 411 kts 358°
2026-05-06 18:26 30.76975 -78.46339 41118 ft 411 kts 357°
2026-05-06 18:27 30.82643 -78.45418 41108 ft 411 kts 357°
2026-05-06 18:27 30.88304 -78.44496 41123 ft 411 kts 357°
2026-05-06 18:28 30.93961 -78.43574 41117 ft 410 kts 357°
2026-05-06 18:28 30.99611 -78.42652 41108 ft 410 kts 357°
2026-05-06 18:29 31.05264 -78.41729 41126 ft 410 kts 356°
2026-05-06 18:29 31.10919 -78.40804 41114 ft 410 kts 356°
2026-05-06 18:30 31.16575 -78.39878 41118 ft 410 kts 356°
2026-05-06 18:30 31.22189 -78.38958 41122 ft 410 kts 356°
2026-05-06 18:31 31.27831 -78.38031 41147 ft 410 kts 356°
2026-05-06 18:31 31.33485 -78.37102 41126 ft 410 kts 356°
2026-05-06 18:32 31.39133 -78.36173 41115 ft 410 kts 356°
2026-05-06 18:32 31.44786 -78.35242 41118 ft 410 kts 356°
2026-05-06 18:33 31.50429 -78.34311 41118 ft 410 kts 356°
2026-05-06 18:33 31.56080 -78.33378 41135 ft 410 kts 356°
2026-05-06 18:34 31.61735 -78.32443 41123 ft 410 kts 356°
2026-05-06 18:34 31.67385 -78.31507 41113 ft 410 kts 356°
2026-05-06 18:35 31.73034 -78.30570 41111 ft 410 kts 356°
2026-05-06 18:35 31.78682 -78.29633 41110 ft 410 kts 356°
2026-05-06 18:36 31.84326 -78.28695 41121 ft 410 kts 356°
2026-05-06 18:36 31.89974 -78.27755 41112 ft 410 kts 356°
2026-05-06 18:37 31.95573 -78.26822 41109 ft 409 kts 356°
2026-05-06 18:37 32.01210 -78.25882 41110 ft 409 kts 356°
2026-05-06 18:38 32.06848 -78.24812 41110 ft 412 kts 358°
2026-05-06 18:38 32.12499 -78.23562 41118 ft 413 kts 358°
2026-05-06 18:39 32.18151 -78.22306 41107 ft 413 kts 358°
2026-05-06 18:40 32.26623 -78.20459 41102 ft 412 kts 358°
2026-05-06 18:40 32.32269 -78.19237 41107 ft 412 kts 358°
2026-05-06 18:41 32.37912 -78.18016 41112 ft 413 kts 358°
2026-05-06 18:41 32.43565 -78.16791 41105 ft 413 kts 358°
2026-05-06 18:42 32.49217 -78.15564 41103 ft 413 kts 358°
2026-05-06 18:42 32.54868 -78.14336 41103 ft 413 kts 358°
2026-05-06 18:43 32.60480 -78.13114 41124 ft 413 kts 358°
2026-05-06 18:43 32.66137 -78.11882 41106 ft 413 kts 358°
2026-05-06 18:44 32.71795 -78.10647 41094 ft 414 kts 358°
2026-05-06 18:44 32.77458 -78.09410 41096 ft 414 kts 358°
2026-05-06 18:45 32.83117 -78.08172 41095 ft 414 kts 358°
2026-05-06 18:45 32.88782 -78.06931 41095 ft 414 kts 358°
2026-05-06 18:46 32.94448 -78.05688 41092 ft 414 kts 358°
2026-05-06 18:46 33.00111 -78.04444 41093 ft 414 kts 358°
2026-05-06 18:47 33.05775 -78.03199 41088 ft 414 kts 358°
2026-05-06 18:47 33.11436 -78.01952 41128 ft 414 kts 357°
2026-05-06 18:48 33.17113 -78.00701 41099 ft 415 kts 358°
2026-05-06 18:48 33.22788 -77.99448 41079 ft 415 kts 358°
2026-05-06 18:49 33.28462 -77.98192 41077 ft 414 kts 358°
2026-05-06 18:49 33.34125 -77.96939 41080 ft 414 kts 358°
2026-05-06 18:50 33.38833 -77.95895 41094 ft 414 kts 357°
2026-05-06 18:50 33.45446 -77.94426 41079 ft 413 kts 358°
2026-05-06 18:51 33.51091 -77.93172 41074 ft 412 kts 358°
2026-05-06 18:51 33.56682 -77.91927 41075 ft 411 kts 358°
2026-05-06 18:52 33.62294 -77.90677 41106 ft 410 kts 357°
2026-05-06 18:52 33.67903 -77.89426 41082 ft 409 kts 358°
2026-05-06 18:53 33.73501 -77.88176 41064 ft 409 kts 357°
2026-05-06 18:53 33.79092 -77.86981 41071 ft 403 kts 353°
2026-05-06 18:53 33.81837 -77.86837 41082 ft 391 kts 347°
2026-05-06 18:54 33.84558 -77.86870 41071 ft 391 kts 347°
2026-05-06 18:54 33.90000 -77.86966 41089 ft 392 kts 347°
2026-05-06 18:55 33.95460 -77.87040 41079 ft 393 kts 347°
2026-05-06 18:55 34.00935 -77.87095 41075 ft 394 kts 347°
2026-05-06 18:56 34.06423 -77.87144 41054 ft 395 kts 347°
2026-05-06 18:56 34.11920 -77.87192 41057 ft 395 kts 347°
2026-05-06 18:57 34.17418 -77.87241 41061 ft 396 kts 347°
2026-05-06 18:57 34.22925 -77.87290 41062 ft 396 kts 347°
2026-05-06 18:58 34.28432 -77.87339 41052 ft 396 kts 347°
2026-05-06 18:58 34.33931 -77.87387 41054 ft 395 kts 348°
2026-05-06 18:58 34.36707 -77.87213 41052 ft 406 kts 354°
2026-05-06 18:59 34.39512 -77.86751 41096 ft 407 kts 355°
2026-05-06 18:59 34.45092 -77.85766 41060 ft 408 kts 355°
2026-05-06 19:00 34.50698 -77.84776 41029 ft 407 kts 355°
2026-05-06 19:00 34.56292 -77.83806 41033 ft 406 kts 355°
2026-05-06 19:01 34.61914 -77.82843 41029 ft 405 kts 355°
2026-05-06 19:01 34.67456 -77.81895 41029 ft 405 kts 355°
2026-05-06 19:02 34.73032 -77.80940 41039 ft 405 kts 355°
2026-05-06 19:02 34.78610 -77.79983 41036 ft 405 kts 355°
2026-05-06 19:03 34.84183 -77.79025 41035 ft 405 kts 355°
2026-05-06 19:03 34.89756 -77.78066 41052 ft 405 kts 354°
2026-05-06 19:04 34.95347 -77.77103 41040 ft 406 kts 354°
2026-05-06 19:04 34.99994 -77.76302 41037 ft 406 kts 355°
2026-05-06 19:05 35.05597 -77.75333 41031 ft 407 kts 355°
2026-05-06 19:05 35.11214 -77.74361 41027 ft 408 kts 355°
2026-05-06 19:06 35.16837 -77.73387 41026 ft 409 kts 354°
2026-05-06 19:06 35.22473 -77.72409 41022 ft 409 kts 355°
2026-05-06 19:07 35.28120 -77.71427 41017 ft 410 kts 355°
2026-05-06 19:07 35.33768 -77.70444 41018 ft 410 kts 355°
2026-05-06 19:08 35.39422 -77.69458 41019 ft 411 kts 355°
2026-05-06 19:08 35.45081 -77.68470 41020 ft 411 kts 355°
2026-05-06 19:09 35.50741 -77.67481 41020 ft 411 kts 355°
2026-05-06 19:09 35.56395 -77.66491 41017 ft 410 kts 355°
2026-05-06 19:10 35.62049 -77.65499 41024 ft 410 kts 354°
2026-05-06 19:10 35.67705 -77.64507 41007 ft 411 kts 354°
2026-05-06 19:11 35.73367 -77.63512 41002 ft 411 kts 354°
2026-05-06 19:11 35.79026 -77.62516 41007 ft 411 kts 354°
2026-05-06 19:12 35.84692 -77.61517 41007 ft 411 kts 354°
2026-05-06 19:12 35.90320 -77.60524 40999 ft 412 kts 354°
2026-05-06 19:13 35.95997 -77.59521 40988 ft 412 kts 354°
2026-05-06 19:13 36.01675 -77.58514 41002 ft 412 kts 354°
2026-05-06 19:14 36.07354 -77.57507 40988 ft 412 kts 354°
2026-05-06 19:14 36.13026 -77.56500 41000 ft 412 kts 354°
2026-05-06 19:15 36.18706 -77.55490 40997 ft 412 kts 354°
2026-05-06 19:15 36.24385 -77.54479 40994 ft 412 kts 354°
2026-05-06 19:16 36.30061 -77.53466 40990 ft 412 kts 354°
2026-05-06 19:16 36.35736 -77.52453 41005 ft 412 kts 354°
2026-05-06 19:17 36.41413 -77.51438 40997 ft 412 kts 354°
2026-05-06 19:17 36.47094 -77.50420 40987 ft 413 kts 354°
2026-05-06 19:18 36.52782 -77.49399 40990 ft 413 kts 354°
2026-05-06 19:18 36.58471 -77.48378 41035 ft 413 kts 354°
2026-05-06 19:19 36.64128 -77.47363 41009 ft 413 kts 354°
2026-05-06 19:19 36.69853 -77.46340 40486 ft 420 kts 354°
2026-05-06 19:19 36.72746 -77.45820 39896 ft 419 kts 354°
2026-05-06 19:20 36.75625 -77.45298 39321 ft 417 kts 354°
2026-05-06 19:20 36.78495 -77.44776 38727 ft 416 kts 353°
2026-05-06 19:20 36.81359 -77.44258 37999 ft 417 kts 354°
2026-05-06 19:20 36.84233 -77.43740 37295 ft 417 kts 354°
2026-05-06 19:21 36.87108 -77.43222 36598 ft 418 kts 354°
2026-05-06 19:21 36.89988 -77.42703 35892 ft 419 kts 355°
2026-05-06 19:21 36.92889 -77.42182 35089 ft 424 kts 355°
2026-05-06 19:21 36.95813 -77.41655 34480 ft 424 kts 356°
2026-05-06 19:22 36.98747 -77.41123 33861 ft 428 kts 356°
2026-05-06 19:22 37.01741 -77.40588 33217 ft 442 kts 357°
2026-05-06 19:22 37.04812 -77.40038 32629 ft 448 kts 358°
2026-05-06 19:22 37.07892 -77.39474 31976 ft 446 kts 358°
2026-05-06 19:23 37.10951 -77.38908 31371 ft 444 kts 359°
2026-05-06 19:23 37.14003 -77.38344 30772 ft 442 kts 359°
2026-05-06 19:23 37.17034 -77.37787 30187 ft 440 kts 359°
2026-05-06 19:23 37.20058 -77.37234 29531 ft 439 kts 359°
2026-05-06 19:24 37.23067 -77.36683 28900 ft 435 kts 359°
2026-05-06 19:24 37.26046 -77.36137 28284 ft 431 kts 359°
2026-05-06 19:24 37.28994 -77.35598 27707 ft 427 kts 359°
2026-05-06 19:24 37.31928 -77.35062 27075 ft 424 kts 359°
2026-05-06 19:25 37.34837 -77.34530 26468 ft 421 kts 359°
2026-05-06 19:25 37.37684 -77.34009 25858 ft 418 kts 359°
2026-05-06 19:25 37.40549 -77.33484 25300 ft 413 kts 359°
2026-05-06 19:25 37.43381 -77.32965 24670 ft 411 kts 359°
2026-05-06 19:26 37.46202 -77.32448 24076 ft 408 kts 359°
2026-05-06 19:26 37.49003 -77.31933 23474 ft 405 kts 360°
2026-05-06 19:26 37.51790 -77.31325 22648 ft 409 kts
2026-05-06 19:26 37.54567 -77.30596 21988 ft 407 kts
2026-05-06 19:27 37.57317 -77.29837 21384 ft 402 kts
2026-05-06 19:27 37.60030 -77.29090 20809 ft 396 kts
2026-05-06 19:27 37.62708 -77.28368 20239 ft 391 kts
2026-05-06 19:27 37.65353 -77.27667 19702 ft 386 kts
2026-05-06 19:28 37.67966 -77.26981 19139 ft 382 kts
2026-05-06 19:28 37.70556 -77.26304 18580 ft 378 kts
2026-05-06 19:28 37.73122 -77.25630 17988 ft 375 kts
2026-05-06 19:28 37.75664 -77.24938 17378 ft 374 kts
2026-05-06 19:29 37.78143 -77.23911 16826 ft 375 kts 12°
2026-05-06 19:29 37.80559 -77.22696 16261 ft 372 kts 15°
2026-05-06 19:29 37.82942 -77.21466 15718 ft 368 kts 15°
2026-05-06 19:29 37.85309 -77.20287 15182 ft 363 kts 14°
2026-05-06 19:30 37.87656 -77.19152 14694 ft 358 kts 14°
2026-05-06 19:30 37.89978 -77.18042 14194 ft 355 kts 14°
2026-05-06 19:30 37.92249 -77.16811 13654 ft 357 kts 20°
2026-05-06 19:30 37.94439 -77.15327 13082 ft 356 kts 23°
2026-05-06 19:31 37.96599 -77.13816 12546 ft 354 kts 23°
2026-05-06 19:31 37.98577 -77.11919 12000 ft 363 kts 45°
2026-05-06 19:31 38.00906 -77.06377 11691 ft 356 kts 66°
2026-05-06 19:32 38.01827 -77.03451 11511 ft 358 kts 67°
2026-05-06 19:32 38.02746 -77.00506 11348 ft 361 kts 67°
2026-05-06 19:32 38.03682 -76.97547 11160 ft 362 kts 67°
2026-05-06 19:32 38.04629 -76.94594 10991 ft 361 kts 66°
2026-05-06 19:33 38.05581 -76.91652 10809 ft 360 kts 66°
2026-05-06 19:33 38.06533 -76.88723 10644 ft 359 kts 66°
2026-05-06 19:33 38.07473 -76.85835 10460 ft 358 kts 66°
2026-05-06 19:33 38.08421 -76.82916 10300 ft 356 kts 66°
2026-05-06 19:34 38.09609 -76.80196 10096 ft 342 kts 46°
2026-05-06 19:34 38.11318 -76.78239 10003 ft 322 kts 31°
2026-05-06 19:34 38.13113 -76.76628 9842 ft 312 kts 29°
2026-05-06 19:34 38.14866 -76.75106 9692 ft 308 kts 28°
2026-05-06 19:35 38.16628 -76.73559 9520 ft 308 kts 29°
2026-05-06 19:35 38.18386 -76.71991 9370 ft 309 kts 30°
2026-05-06 19:35 38.20144 -76.70409 9216 ft 310 kts 30°
2026-05-06 19:35 38.21913 -76.68835 9055 ft 309 kts 26°
2026-05-06 19:36 38.23856 -76.67879 8946 ft 294 kts
2026-05-06 19:36 38.25852 -76.67404 8874 ft 291 kts
2026-05-06 19:36 38.27836 -76.66968 8791 ft 289 kts
2026-05-06 19:36 38.29814 -76.66533 8705 ft 288 kts
2026-05-06 19:37 38.31788 -76.66093 8630 ft 287 kts
2026-05-06 19:37 38.33749 -76.65648 8550 ft 287 kts
2026-05-06 19:37 38.35723 -76.65198 8496 ft 290 kts
2026-05-06 19:37 38.37047 -76.64894 8440 ft 292 kts
2026-05-06 19:38 38.39730 -76.64272 8331 ft 293 kts
2026-05-06 19:38 38.41737 -76.63805 8244 ft 293 kts
2026-05-06 19:38 38.43735 -76.63339 8160 ft 292 kts
2026-05-06 19:38 38.45727 -76.62875 8073 ft 291 kts
2026-05-06 19:39 38.47714 -76.62435 7964 ft 289 kts 358°
2026-05-06 19:39 38.49714 -76.62417 7651 ft 286 kts 348°
2026-05-06 19:39 38.51676 -76.62612 7353 ft 281 kts 347°
2026-05-06 19:39 38.53607 -76.62832 7046 ft 278 kts 347°
2026-05-06 19:40 38.55523 -76.63037 6749 ft 274 kts 347°
2026-05-06 19:40 38.57413 -76.63225 6456 ft 272 kts 347°
2026-05-06 19:40 38.59290 -76.63398 6165 ft 269 kts 349°
2026-05-06 19:40 38.61146 -76.63562 5852 ft 267 kts 349°
2026-05-06 19:41 38.62993 -76.63722 5548 ft 264 kts 349°
2026-05-06 19:41 38.64798 -76.63876 5252 ft 263 kts 350°
2026-05-06 19:41 38.66640 -76.64034 5014 ft 262 kts 350°
2026-05-06 19:41 38.68457 -76.64190 4845 ft 265 kts 350°
2026-05-06 19:42 38.70293 -76.64348 4583 ft 269 kts 350°
2026-05-06 19:42 38.72150 -76.64506 4326 ft 268 kts 351°
2026-05-06 19:42 38.74035 -76.64665 4083 ft 265 kts 350°
2026-05-06 19:42 38.75869 -76.64821 3840 ft 265 kts 350°
2026-05-06 19:43 38.77704 -76.64977 3605 ft 264 kts 351°
2026-05-06 19:43 38.79541 -76.65134 3375 ft 265 kts 350°
2026-05-06 19:43 38.81379 -76.65291 3151 ft 265 kts 351°
2026-05-06 19:43 38.83135 -76.65725 3000 ft 253 kts 329°
2026-05-06 19:44 38.84664 -76.66721 2976 ft 237 kts 326°
2026-05-06 19:44 38.86081 -76.67654 2968 ft 229 kts 326°
2026-05-06 19:44 38.87489 -76.68574 2960 ft 225 kts 327°
2026-05-06 19:44 38.88889 -76.69479 2977 ft 227 kts 327°
2026-05-06 19:45 38.90306 -76.70393 2984 ft 228 kts 327°
2026-05-06 19:45 38.91675 -76.71275 2980 ft 212 kts 324°
2026-05-06 19:45 38.92901 -76.72235 2995 ft 202 kts 320°
2026-05-06 19:45 38.94055 -76.73245 3009 ft 203 kts 319°
2026-05-06 19:46 38.95231 -76.74299 3009 ft 209 kts 318°
2026-05-06 19:46 38.96442 -76.75370 3003 ft 212 kts 319°
2026-05-06 19:46 38.97645 -76.76424 2987 ft 207 kts 320°
2026-05-06 19:46 38.98823 -76.77454 2980 ft 202 kts 317°
2026-05-06 19:47 38.99967 -76.78495 2979 ft 204 kts 320°
2026-05-06 19:47 39.01071 -76.79655 2948 ft 204 kts 300°
2026-05-06 19:47 39.01544 -76.81348 2698 ft 204 kts 272°
2026-05-06 19:47 39.01607 -76.83168 2341 ft 202 kts 259°
2026-05-06 19:48 39.01007 -76.84715 2058 ft 192 kts 224°
2026-05-06 19:48 38.99914 -76.85563 1997 ft 176 kts 210°
2026-05-06 19:48 38.98859 -76.86219 1992 ft 165 kts 209°
2026-05-06 19:48 38.97833 -76.86843 2002 ft 164 kts 209°
2026-05-06 19:49 38.96728 -76.87166 1970 ft 170 kts 175°
2026-05-06 19:49 38.95569 -76.86768 1976 ft 173 kts 171°
2026-05-06 19:49 38.94440 -76.86444 1968 ft 160 kts 183°
2026-05-06 19:49 38.93363 -76.86394 1955 ft 154 kts 188°
2026-05-06 19:50 38.92327 -76.86390 1947 ft 143 kts 188°
2026-05-06 19:50 38.91313 -76.86391 1995 ft 148 kts 187°
2026-05-06 19:50 38.90257 -76.86389 1819 ft 153 kts 187°
2026-05-06 19:50 38.89199 -76.86384 1627 ft 152 kts 188°
2026-05-06 19:51 38.88183 -76.86377 1406 ft 137 kts 189°
2026-05-06 19:51 38.87320 -76.86374 1277 ft 111 kts 191°
2026-05-06 19:51 38.86592 -76.86375 1094 ft 96 kts 193°
2026-05-06 19:51 38.85868 -76.86397 1065 ft 123 kts 187°
2026-05-06 19:52 38.85256 -76.86383 835 ft 138 kts 182°
2026-05-06 19:52 38.84126 -76.86389 617 ft 112 kts 187°
2026-05-06 19:52 38.83621 -76.86377 553 ft 108 kts 182°
2026-05-06 19:52 38.82873 -76.86356 369 ft 108 kts 186°
2026-05-06 19:53 38.81923 -76.86364 273 ft 89 kts 179°
2026-05-06 19:53 38.81455 -76.86364 275 ft 45 kts 180°
2026-05-06 19:53 38.81255 -76.86363 274 ft 23 kts 180°
2026-05-06 19:53 38.81149 -76.86363 273 ft 22 kts 180°
2026-05-06 19:54 38.80995 -76.86365 272 ft 22 kts 187°
2026-05-06 19:54 38.80947 -76.86519 274 ft 21 kts 269°
2026-05-06 19:54 38.80946 -76.86704 274 ft 21 kts 270°
2026-05-06 19:54 38.80945 -76.86885 274 ft 20 kts 269°
2026-05-06 19:55 38.80945 -76.87060 276 ft 19 kts 270°
2026-05-06 19:55 38.80945 -76.87229 274 ft 19 kts 269°
2026-05-06 19:55 38.80944 -76.87378 274 ft 14 kts 269°
2026-05-06 19:55 38.80885 -76.87447 274 ft 13 kts 184°
2026-05-06 19:56 38.80807 -76.87458 274 ft 9 kts 223°
2026-05-06 19:56 38.80804 -76.87534 273 ft 9 kts 271°
2026-05-06 19:56 38.80804 -76.87601 272 ft 6 kts 268°
2026-05-06 19:56 38.80825 -76.87622 274 ft 4 kts 353°
2026-05-06 19:57 38.80854 -76.87623 270 ft 0 kts 359°